This is the latest recevied weather packets stored in our database for station/object N8AMF. If no packets are shown the sender has not sent any weather packets the latest 1 day(s).
| Time | Temp. | Humidity | Pressure | Rain* | Wind** | Luminosity | Snow |
|---|---|---|---|---|---|---|---|
| 1778034543 | 9.44° C | 99% | 1008.5 hPa | 3.56 mm | - | 0 W/m² | - |
| 1778034241 | 9.44° C | 99% | 1008.4 hPa | 5.33 mm | - | 0 W/m² | - |
| 1778033938 | 9.44° C | 99% | 1008.2 hPa | 6.6 mm | - | 0 W/m² | - |
| 1778033635 | 9.44° C | 98% | 1008.1 hPa | 6.1 mm | - | 0 W/m² | - |
| 1778033332 | 9.44° C | 98% | 1007.9 hPa | 5.33 mm | - | 0 W/m² | - |
| 1778033030 | 9.44° C | 98% | 1008.1 hPa | 4.32 mm | - | 0 W/m² | - |
| 1778032727 | 9.44° C | 98% | 1008.1 hPa | 3.56 mm | - | 0 W/m² | - |
| 1778032425 | 9.44° C | 98% | 1007.9 hPa | 2.29 mm | - | 0 W/m² | - |
| 1778031818 | 9.44° C | 98% | 1007.7 hPa | 0.51 mm | - | 0 W/m² | - |
| 1778031515 | 9.44° C | 98% | 1007.6 hPa | 1.27 mm | - | 0 W/m² | - |
| 1778031212 | 9.44° C | 98% | 1007.7 hPa | 2.29 mm | - | 0 W/m² | - |
| 1778030606 | 9.44° C | 98% | 1007.5 hPa | 1.78 mm | - | 0 W/m² | - |
| 1778030303 | 9.44° C | 98% | 1007.6 hPa | 1.27 mm | - | 0 W/m² | - |
| 1778029697 | 9.44° C | 98% | 1007.6 hPa | 1.27 mm | - | 0 W/m² | - |
| 1778029395 | 9.44° C | 98% | 1007.3 hPa | 0.51 mm | - | 0 W/m² | - |
| 1778028788 | 9.44° C | 98% | 1007.6 hPa | 0.51 mm | - | 0 W/m² | - |
| 1778028484 | 9.44° C | 98% | 1007.6 hPa | 0.51 mm | - | 0 W/m² | - |
| 1778027878 | 9.44° C | 98% | 1007.5 hPa | 2.29 mm | - | 0 W/m² | - |
| 1778027271 | 9.44° C | 98% | 1007.7 hPa | 1.27 mm | - | 0 W/m² | - |
| 1778026967 | 9.44° C | 98% | 1007.6 hPa | 1.78 mm | - | 1 W/m² | - |
| 1778026663 | 9.44° C | 98% | 1007.6 hPa | 1.78 mm | - | 1 W/m² | - |
| 1778026361 | 9.44° C | 98% | 1007.3 hPa | 1.78 mm | - | 1 W/m² | - |
| 1778025452 | 9.44° C | 98% | 1007.1 hPa | 3.56 mm | - | 3 W/m² | - |
| 1778024240 | 10° C | 98% | 1007 hPa | 0.51 mm | - | 9 W/m² | - |
| 1778022426 | 10° C | 97% | 1007 hPa | 1.27 mm | - | 29 W/m² | - |
* Rain latest hour (hover to see other rain measurements)
** Current wind speed in m/s (hover to see current wind gust speed)